| time (UTC) | temp C | wind direction | speed KPH | gust KPH | rain 1hr cm | rain 24hr cm | rain mn cm | humidity % | barometer mb |
| 20260507231551 | 18 | 121 | 3.2 | 11.3 | 0.00 | 0.00 | 0.00 | 49 | 1017.9 |
| 20260507230050 | 19 | 134 | 4.8 | 11.3 | 0.00 | 0.00 | 0.00 | 49 | 1017.9 |
| 20260507224545 | 19 | 57 | 3.2 | 8.0 | 0.00 | 0.00 | 0.00 | 49 | 1018.2 |
| 20260507223045 | 19 | 66 | 0.0 | 6.4 | 0.00 | 0.00 | 0.00 | 48 | 1018.2 |
| 20260507221541 | 19 | 156 | 1.6 | 4.8 | 0.00 | 0.00 | 0.00 | 50 | 1018.2 |
| 20260507220039 | 18 | 186 | 8.0 | 14.5 | 0.00 | 0.00 | 0.00 | 47 | 1018.3 |
| 20260507214538 | 19 | 179 | 3.2 | 9.7 | 0.00 | 0.00 | 0.00 | 49 | 1018.3 |
| 20260507213036 | 18 | 153 | 1.6 | 12.9 | 0.00 | 0.00 | 0.00 | 48 | 1018.4 |
| 20260507211535 | 18 | 66 | 3.2 | 12.9 | 0.00 | 0.00 | 0.00 | 47 | 1018.4 |
| 20260507210034 | 18 | 76 | 3.2 | 9.7 | 0.00 | 0.00 | 0.00 | 49 | 1018.5 |
| 20260507204531 | 18 | 86 | 0.0 | 11.3 | 0.00 | 0.00 | 0.00 | 45 | 1018.6 |
| 20260507203029 | 18 | 115 | 1.6 | 6.4 | 0.00 | 0.00 | 0.00 | 45 | 1018.7 |
| 20260507201530 | 17 | 348 | 3.2 | 8.0 | 0.00 | 0.00 | 0.00 | 46 | 1018.8 |
| 20260507200041 | 18 | 227 | 3.2 | 6.4 | 0.00 | 0.00 | 0.00 | 45 | 1019.0 |
| 20260507194525 | 18 | 360 | 6.4 | 14.5 | 0.00 | 0.00 | 0.00 | 48 | 1019.2 |
| 20260507193023 | 17 | 86 | 8.0 | 14.5 | 0.00 | 0.00 | 0.00 | 47 | 1019.3 |
| 20260507191522 | 17 | 84 | 4.8 | 14.5 | 0.00 | 0.00 | 0.00 | 49 | 1019.4 |
| 20260507190022 | 17 | 76 | 6.4 | 12.9 | 0.00 | 0.00 | 0.00 | 46 | 1019.4 |
| 20260507184519 | 17 | 65 | 6.4 | 14.5 | 0.00 | 0.00 | 0.00 | 49 | 1019.5 |
| 20260507183032 | 17 | 18 | 1.6 | 17.7 | 0.00 | 0.00 | 0.00 | 53 | 1019.6 |
| 20260507181516 | 17 | 296 | 3.2 | 8.0 | 0.00 | 0.00 | 0.00 | 50 | 1019.7 |
| 20260507180020 | 17 | 348 | 1.6 | 14.5 | 0.00 | 0.00 | 0.00 | 50 | 1020.1 |
| 20260507174515 | 16 | 355 | 8.0 | 17.7 | 0.00 | 0.00 | 0.00 | 55 | 1020.3 |
| 20260507173012 | 16 | 21 | 1.6 | 14.5 | 0.00 | 0.00 | 0.00 | 56 | 1020.7 |
| 20260507171511 | 16 | 24 | 3.2 | 12.9 | 0.00 | 0.00 | 0.00 | 58 | 1020.7 |
| 20260507170010 | 15 | 292 | 4.8 | 17.7 | 0.00 | 0.00 | 0.00 | 58 | 1020.8 |
| 20260507164509 | 16 | 29 | 3.2 | 16.1 | 0.00 | 0.00 | 0.00 | 61 | 1020.8 |
| 20260507163008 | 16 | 343 | 3.2 | 8.0 | 0.00 | 0.00 | 0.00 | 59 | 1021.0 |
| 20260507161508 | 16 | 63 | 4.8 | 12.9 | 0.00 | 0.00 | 0.00 | 58 | 1021.0 |
| 20260507160005 | 15 | 53 | 4.8 | 12.9 | 0.00 | 0.00 | 0.00 | 65 | 1021.2 |
| 20260507154506 | 16 | 44 | 3.2 | 12.9 | 0.00 | 0.00 | 0.00 | 63 | 1021.1 |
| 20260507153002 | 15 | 32 | 1.6 | 8.0 | 0.00 | 0.00 | 0.00 | 65 | 1021.3 |
| 20260507151558 | 15 | 40 | 3.2 | 12.9 | 0.00 | 0.00 | 0.00 | 68 | 1021.4 |
| 20260507150103 | 15 | 71 | 6.4 | 14.5 | 0.00 | 0.00 | 0.00 | 69 | 1021.6 |
| 20260507144553 | 14 | 55 | 1.6 | 9.7 | 0.00 | 0.00 | 0.00 | 70 | 1021.5 |
| 20260507143054 | 14 | 91 | 6.4 | 14.5 | 0.00 | 0.00 | 0.00 | 70 | 1021.2 |
| 20260507141552 | 13 | 60 | 6.4 | 12.9 | 0.00 | 0.00 | 0.00 | 72 | 1021.6 |
| 20260507140044 | 13 | 68 | 6.4 | 17.7 | 0.00 | 0.00 | 0.00 | 74 | 1021.4 |
| 20260507134551 | 12 | 61 | 8.0 | 16.1 | 0.00 | 0.00 | 0.00 | 77 | 1021.5 |
| 20260507133039 | 12 | 81 | 3.2 | 9.7 | 0.00 | 0.00 | 0.00 | 80 | 1021.5 |
| 20260507131539 | 11 | 44 | 3.2 | 9.7 | 0.00 | 0.00 | 0.00 | 81 | 1021.3 |
| 20260507130035 | 11 | 5 | 3.2 | 14.5 | 0.00 | 0.00 | 0.00 | 83 | 1021.2 |
| 20260507124534 | 10 | 38 | 1.6 | 9.7 | 0.00 | 0.00 | 0.00 | 86 | 1020.8 |
| 20260507123036 | 10 | 59 | 6.4 | 17.7 | 0.00 | 0.00 | 0.00 | 87 | 1020.9 |
| 20260507121531 | 9 | 360 | 8.0 | 14.5 | 0.00 | 0.00 | 0.00 | 89 | 1020.7 |
| 20260507120030 | 8 | 355 | 6.4 | 12.9 | 0.00 | 0.00 | 0.00 | 90 | 1020.6 |
| 20260507114533 | 8 | 355 | 6.4 | 9.7 | 0.00 | 0.00 | 0.00 | 90 | 1020.6 |
| 20260507113027 | 8 | 355 | 3.2 | 8.0 | 0.00 | 0.00 | 0.00 | 90 | 1020.4 |
| 20260507111525 | 8 | 355 | 4.8 | 9.7 | 0.00 | 0.00 | 0.00 | 90 | 1020.1 |
| 20260507110024 | 8 | 355 | 4.8 | 9.7 | 0.00 | 0.00 | 0.00 | 90 | 1019.9 |
| 20260507104524 | 8 | 355 | 4.8 | 8.0 | 0.00 | 0.00 | 0.00 | 90 | 1019.9 |
| 20260507103023 | 8 | 360 | 3.2 | 8.0 | 0.00 | 0.00 | 0.00 | 90 | 1019.8 |
| 20260507101520 | 8 | 355 | 1.6 | 8.0 | 0.00 | 0.00 | 0.00 | 90 | 1019.9 |
| 20260507100014 | 8 | 355 | 1.6 | 8.0 | 0.00 | 0.00 | 0.00 | 89 | 1019.8 |
| 20260507094512 | 9 | 345 | 4.8 | 9.7 | 0.00 | 0.00 | 0.00 | 89 | 1019.6 |
| 20260507093010 | 9 | 350 | 6.4 | 9.7 | 0.00 | 0.00 | 0.00 | 89 | 1019.4 |
| 20260507091508 | 9 | 344 | 4.8 | 9.7 | 0.00 | 0.00 | 0.00 | 89 | 1019.6 |
| 20260507090007 | 9 | 347 | 8.0 | 12.9 | 0.00 | 0.00 | 0.00 | 89 | 1019.3 |
| 20260507084504 | 9 | 334 | 6.4 | 9.7 | 0.00 | 0.00 | 0.00 | 89 | 1019.2 |
| 20260507083102 | 10 | 344 | 3.2 | 9.7 | 0.00 | 0.00 | 0.00 | 89 | 1019.2 |
| 20260507081604 | 10 | 350 | 3.2 | 6.4 | 0.00 | 0.00 | 0.00 | 88 | 1019.1 |
| 20260507080059 | 10 | 350 | 3.2 | 6.4 | 0.00 | 0.00 | 0.00 | 88 | 1019.0 |
| 20260507074559 | 10 | 10 | 3.2 | 8.0 | 0.00 | 0.00 | 0.00 | 89 | 1019.1 |
| 20260507073059 | 10 | 346 | 3.2 | 6.4 | 0.00 | 0.00 | 0.00 | 88 | 1019.0 |
| 20260507071557 | 10 | 355 | 3.2 | 6.4 | 0.00 | 0.00 | 0.00 | 88 | 1019.1 |
| 20260507070101 | 11 | 355 | 3.2 | 8.0 | 0.00 | 0.00 | 0.00 | 88 | 1019.1 |
| 20260507064550 | 11 | 5 | 3.2 | 6.4 | 0.00 | 0.03 | 0.00 | 89 | 1019.1 |
| 20260507063050 | 11 | 11 | 1.6 | 4.8 | 0.00 | 0.03 | 0.00 | 89 | 1019.2 |
| 20260507061546 | 11 | 355 | 1.6 | 4.8 | 0.00 | 0.03 | 0.00 | 89 | 1019.2 |
| 20260507060056 | 11 | 360 | 1.6 | 6.4 | 0.00 | 0.03 | 0.00 | 88 | 1019.2 |
| 20260507054547 | 12 | 340 | 3.2 | 8.0 | 0.00 | 0.05 | 0.00 | 88 | 1019.1 |
| 20260507053048 | 12 | 348 | 3.2 | 6.4 | 0.00 | 0.05 | 0.00 | 87 | 1019.3 |
| 20260507051542 | 12 | 27 | 1.6 | 4.8 | 0.00 | 0.05 | 0.00 | 85 | 1019.2 |
| 20260507050041 | 12 | 31 | 0.0 | 1.6 | 0.00 | 0.05 | 0.00 | 84 | 1019.3 |
| 20260507044536 | 12 | 33 | 0.0 | 3.2 | 0.00 | 0.18 | 0.05 | 84 | 1018.8 |
| 20260507043035 | 12 | 33 | 0.0 | 3.2 | 0.00 | 0.18 | 0.05 | 85 | 1019.0 |
| 20260507041537 | 12 | 28 | 0.0 | 4.8 | 0.00 | 0.18 | 0.05 | 85 | 1018.9 |
| 20260507040035 | 13 | 42 | 0.0 | 3.2 | 0.00 | 0.18 | 0.05 | 83 | 1019.1 |
| 20260507034551 | 13 | 40 | 1.6 | 4.8 | 0.00 | 0.51 | 0.05 | 82 | 1019.0 |
| 20260507033039 | 13 | 28 | 0.0 | 3.2 | 0.00 | 0.51 | 0.05 | 82 | 1019.0 |
| 20260507031534 | 13 | 14 | 0.0 | 4.8 | 0.00 | 0.51 | 0.05 | 83 | 1019.2 |
| 20260507030035 | 13 | 19 | 3.2 | 12.9 | 0.00 | 0.51 | 0.05 | 86 | 1018.7 |
| 20260507024547 | 13 | 9 | 1.6 | 6.4 | 0.00 | 0.51 | 0.05 | 87 | 1019.0 |
| 20260507023030 | 13 | 20 | 1.6 | 6.4 | 0.00 | 0.51 | 0.05 | 87 | 1018.7 |
| 20260507021530 | 13 | 70 | 0.0 | 4.8 | 0.00 | 0.51 | 0.05 | 87 | 1018.4 |
| 20260507020029 | 13 | 73 | 0.0 | 0.0 | 0.00 | 0.51 | 0.05 | 86 | 1017.8 |
| 20260507014537 | 13 | 71 | 0.0 | 0.0 | 0.00 | 0.66 | 0.05 | 84 | 1017.9 |
| 20260507013027 | 13 | 72 | 0.0 | 4.8 | 0.00 | 0.66 | 0.05 | 83 | 1018.5 |
| 20260507011538 | 13 | 75 | 0.0 | 0.0 | 0.00 | 0.66 | 0.05 | 80 | 1018.9 |
| 20260507010027 | 13 | 74 | 3.2 | 6.4 | 0.00 | 0.66 | 0.05 | 80 | 1018.1 |
| 20260507004526 | 14 | 67 | 0.0 | 0.0 | 0.00 | 0.79 | 0.05 | 80 | 1018.3 |
| 20260507003026 | 14 | 67 | 0.0 | 0.0 | 0.00 | 0.79 | 0.05 | 78 | 1018.4 |
| 20260507001527 | 14 | 67 | 0.0 | 1.6 | 0.00 | 0.79 | 0.05 | 76 | 1018.3 |
| 20260507000024 | 14 | 67 | 1.6 | 6.4 | 0.00 | 0.79 | 0.05 | 76 | 1018.1 |
| 20260506234524 | 14 | 74 | 4.8 | 9.7 | 0.00 | 0.94 | 0.05 | 76 | 1017.5 |
| 20260506233023 | 14 | 68 | 1.6 | 12.9 | 0.00 | 0.94 | 0.05 | 75 | 1017.5 |